TimeCDT,TemperatureF,Dew PointF,Humidity,Sea Level PressureIn,VisibilityMPH,Wind Direction,Wind SpeedMPH,Gust SpeedMPH,PrecipitationIn,Events,Conditions,WindDirDegrees,DateUTC
12:53 AM,55.9,48.9,77,30.09,10.0,South,4.6,-,N/A,,Clear,170,2013-04-07 05:53:00
1:53 AM,54.0,50.0,86,30.07,10.0,South,5.8,-,N/A,,Clear,170,2013-04-07 06:53:00
2:53 AM,55.9,52.0,87,30.06,10.0,SSE,6.9,-,N/A,,Mostly Cloudy,160,2013-04-07 07:53:00
3:53 AM,57.0,53.1,87,30.06,10.0,SSE,8.1,-,N/A,,Overcast,160,2013-04-07 08:53:00
4:53 AM,55.9,52.0,87,30.06,10.0,South,5.8,-,N/A,,Mostly Cloudy,170,2013-04-07 09:53:00
5:53 AM,57.0,53.1,87,30.06,10.0,SSE,5.8,-,N/A,,Overcast,150,2013-04-07 10:53:00
6:53 AM,57.0,54.0,89,30.09,10.0,SSE,5.8,-,N/A,,Overcast,150,2013-04-07 11:53:00
7:53 AM,59.0,55.0,87,30.10,10.0,SSE,5.8,-,N/A,,Overcast,160,2013-04-07 12:53:00
8:53 AM,62.1,55.9,80,30.11,10.0,SSE,4.6,-,N/A,,Overcast,160,2013-04-07 13:53:00
9:53 AM,64.9,55.9,73,30.10,10.0,SSE,12.7,-,N/A,,Overcast,160,2013-04-07 14:53:00
10:53 AM,68.0,55.9,65,30.10,10.0,South,9.2,-,N/A,,Overcast,180,2013-04-07 15:53:00
11:53 AM,70.0,54.0,57,30.10,10.0,SW,6.9,-,N/A,,Overcast,230,2013-04-07 16:53:00
12:53 PM,72.0,53.1,51,30.07,10.0,South,12.7,20.7,N/A,,Mostly Cloudy,190,2013-04-07 17:53:00
1:53 PM,73.9,54.0,50,30.04,10.0,SSW,9.2,18.4,N/A,,Mostly Cloudy,200,2013-04-07 18:53:00
2:53 PM,75.9,54.0,46,30.02,10.0,SSW,9.2,-,N/A,,Mostly Cloudy,200,2013-04-07 19:53:00
3:53 PM,77.0,54.0,45,30.00,10.0,South,12.7,17.3,N/A,,Clear,170,2013-04-07 20:53:00
4:53 PM,78.1,54.0,43,29.97,10.0,South,9.2,-,N/A,,Scattered Clouds,190,2013-04-07 21:53:00
5:53 PM,75.0,55.0,50,29.96,10.0,SSE,15.0,-,N/A,,Mostly Cloudy,160,2013-04-07 22:53:00
6:53 PM,73.0,55.0,53,29.95,10.0,SSE,10.4,-,N/A,,Mostly Cloudy,150,2013-04-07 23:53:00
7:53 PM,70.0,55.0,59,29.96,10.0,SSE,9.2,-,N/A,,Clear,150,2013-04-08 00:53:00
8:53 PM,68.0,55.0,63,29.96,10.0,SSE,8.1,-,N/A,,Partly Cloudy,150,2013-04-08 01:53:00
9:53 PM,68.0,55.9,65,29.99,10.0,SSE,11.5,-,N/A,,Scattered Clouds,160,2013-04-08 02:53:00
10:53 PM,66.9,57.0,70,29.98,10.0,SSE,11.5,-,N/A,,Clear,160,2013-04-08 03:53:00
11:53 PM,64.9,57.0,75,29.98,10.0,South,11.5,-,N/A,,Clear,170,2013-04-08 04:53:00